Time,TemperatureF,DewpointF,PressureIn,WindDirection,WindDirectionDegrees,WindSpeedMPH,WindSpeedGustMPH,Humidity,HourlyPrecipIn,Conditions,Clouds,dailyrainin,SolarRadiationWatts/m^2,SoftwareType,DateUTC
2013-08-25 00:03:00,72.0,70.0,-100.00,East,89,0.0,0.0,93,0.00,,,0.85,11.000000,,2013-08-25 05:03:00,
2013-08-25 00:12:00,72.0,70.0,-100.00,East,89,0.0,0.0,93,0.00,,,0.85,11.000000,,2013-08-25 05:12:00,
2013-08-25 00:22:00,72.0,70.0,-100.00,East,89,0.0,0.0,93,0.00,,,0.85,11.000000,,2013-08-25 05:22:00,
2013-08-25 00:52:00,72.0,70.0,-100.00,NNE,21,1.0,5.0,93,0.00,,,0.85,11.000000,,2013-08-25 05:52:00,
2013-08-25 01:03:00,72.0,70.0,-100.00,NNE,21,1.0,5.0,93,0.00,,,0.85,11.000000,,2013-08-25 06:03:00,
2013-08-25 01:12:00,72.0,70.0,-100.00,NNE,21,1.0,5.0,93,0.00,,,0.85,11.000000,,2013-08-25 06:12:00,
2013-08-25 01:22:00,72.0,70.0,-100.00,NNE,21,1.0,5.0,93,0.00,,,0.85,11.000000,,2013-08-25 06:22:00,
2013-08-25 01:52:00,73.0,71.0,-100.00,NE,44,0.0,5.0,93,0.00,,,0.85,11.000000,,2013-08-25 06:52:00,
2013-08-25 02:01:00,73.0,71.0,-100.00,NE,44,0.0,5.0,93,0.00,,,0.85,11.000000,,2013-08-25 07:01:00,
2013-08-25 02:12:00,73.0,71.0,-100.00,NE,44,0.0,5.0,93,0.00,,,0.85,11.000000,,2013-08-25 07:12:00,
2013-08-25 02:22:00,73.0,71.0,-100.00,NE,44,0.0,5.0,93,0.00,,,0.85,11.000000,,2013-08-25 07:22:00,
2013-08-25 02:52:00,72.0,70.0,-100.00,South,190,0.0,2.0,93,0.00,,,0.85,11.000000,,2013-08-25 07:52:00,
2013-08-25 03:02:00,72.0,70.0,-100.00,South,190,0.0,2.0,93,0.00,,,0.85,11.000000,,2013-08-25 08:02:00,
2013-08-25 03:12:00,72.0,70.0,-100.00,South,190,0.0,2.0,93,0.00,,,0.85,11.000000,,2013-08-25 08:12:00,
2013-08-25 03:21:00,72.0,70.0,-100.00,South,190,0.0,2.0,93,0.00,,,0.85,11.000000,,2013-08-25 08:21:00,
2013-08-25 03:52:00,73.0,71.0,-100.00,North,359,0.0,0.0,94,0.00,,,0.85,11.000000,,2013-08-25 08:52:00,
2013-08-25 04:02:00,73.0,71.0,-100.00,North,359,0.0,0.0,94,0.00,,,0.85,11.000000,,2013-08-25 09:02:00,
2013-08-25 04:11:00,73.0,71.0,-100.00,North,359,0.0,0.0,94,0.00,,,0.85,11.000000,,2013-08-25 09:11:00,
2013-08-25 04:22:00,73.0,71.0,-100.00,North,359,0.0,0.0,94,0.00,,,0.85,11.000000,,2013-08-25 09:22:00,
2013-08-25 04:55:00,72.0,70.0,-100.00,ENE,61,0.0,3.0,94,0.00,,,0.85,11.000000,,2013-08-25 09:55:00,
2013-08-25 05:03:00,72.0,70.0,-100.00,ENE,61,0.0,3.0,94,0.00,,,0.85,11.000000,,2013-08-25 10:03:00,
2013-08-25 05:12:00,72.0,70.0,-100.00,ENE,61,0.0,3.0,94,0.00,,,0.85,11.000000,,2013-08-25 10:12:00,
2013-08-25 05:22:00,72.0,70.0,-100.00,ENE,61,0.0,3.0,94,0.00,,,0.85,11.000000,,2013-08-25 10:22:00,
2013-08-25 05:53:00,73.0,71.0,-100.00,NNE,24,2.0,5.0,94,0.00,,,0.74,11.000000,,2013-08-25 10:53:00,
2013-08-25 06:02:00,73.0,71.0,-100.00,NNE,24,2.0,5.0,94,0.00,,,0.74,11.000000,,2013-08-25 11:02:00,
2013-08-25 06:12:00,73.0,71.0,-100.00,NNE,24,2.0,5.0,94,0.00,,,0.74,11.000000,,2013-08-25 11:12:00,
2013-08-25 06:22:00,73.0,71.0,-100.00,NNE,24,2.0,5.0,94,0.00,,,0.74,11.000000,,2013-08-25 11:22:00,
2013-08-25 06:52:00,73.0,71.0,-100.00,NE,51,3.0,7.0,94,0.00,,,0.74,11.000000,,2013-08-25 11:52:00,
2013-08-25 07:01:00,73.0,71.0,-100.00,NE,51,3.0,7.0,94,0.00,,,0.74,11.000000,,2013-08-25 12:01:00,
2013-08-25 07:12:00,73.0,71.0,-100.00,NE,51,3.0,7.0,94,0.00,,,0.74,11.000000,,2013-08-25 12:12:00,
2013-08-25 07:22:00,73.0,71.0,-100.00,NE,51,3.0,7.0,94,0.00,,,0.74,11.000000,,2013-08-25 12:22:00,
2013-08-25 07:52:00,72.0,70.0,-100.00,East,96,0.0,14.0,93,0.19,,,0.93,15.000000,,2013-08-25 12:52:00,
2013-08-25 08:02:00,72.0,70.0,-100.00,East,96,0.0,14.0,93,0.19,,,0.93,15.000000,,2013-08-25 13:02:00,
2013-08-25 08:12:00,72.0,70.0,-100.00,East,96,0.0,14.0,93,0.19,,,0.93,15.000000,,2013-08-25 13:12:00,
2013-08-25 08:21:00,72.0,70.0,-100.00,East,96,0.0,14.0,93,0.19,,,0.93,15.000000,,2013-08-25 13:21:00,
2013-08-25 08:52:00,73.0,71.0,-100.00,ENE,71,1.0,5.0,93,0.00,,,-99.99,49.000000,,2013-08-25 13:52:00,
2013-08-25 09:02:00,73.0,71.0,-100.00,ENE,71,1.0,5.0,93,0.00,,,-99.99,49.000000,,2013-08-25 14:02:00,
2013-08-25 09:11:00,73.0,71.0,-100.00,ENE,71,1.0,5.0,93,0.00,,,-99.99,49.000000,,2013-08-25 14:11:00,
2013-08-25 09:24:00,73.0,71.0,-100.00,ENE,71,1.0,5.0,93,0.00,,,-99.99,49.000000,,2013-08-25 14:24:00,
2013-08-25 09:52:00,77.0,74.0,-100.00,ENE,58,2.0,9.0,89,0.00,,,-99.99,214.000000,,2013-08-25 14:52:00,
2013-08-25 10:01:00,77.0,74.0,-100.00,ENE,58,2.0,9.0,89,0.00,,,-99.99,214.000000,,2013-08-25 15:01:00,
2013-08-25 10:11:00,77.0,74.0,-100.00,ENE,58,2.0,9.0,89,0.00,,,-99.99,214.000000,,2013-08-25 15:11:00,
2013-08-25 10:23:00,77.0,74.0,-100.00,ENE,58,2.0,9.0,89,0.00,,,-99.99,214.000000,,2013-08-25 15:23:00,
2013-08-25 10:55:00,78.0,73.0,-100.00,East,101,3.0,8.0,84,0.00,,,0.93,243.000000,,2013-08-25 15:55:00,
2013-08-25 11:05:00,78.0,73.0,-100.00,East,101,3.0,8.0,84,0.00,,,0.93,243.000000,,2013-08-25 16:05:00,
2013-08-25 11:14:00,78.0,73.0,-100.00,East,101,3.0,8.0,84,0.00,,,0.93,243.000000,,2013-08-25 16:14:00,
2013-08-25 11:24:00,78.0,73.0,-100.00,East,101,3.0,8.0,84,0.00,,,0.93,243.000000,,2013-08-25 16:24:00,
2013-08-25 11:54:00,81.0,73.0,-100.00,ESE,115,6.0,11.0,76,0.00,,,0.93,361.000000,,2013-08-25 16:54:00,
2013-08-25 12:03:00,81.0,73.0,-100.00,ESE,115,6.0,11.0,76,0.00,,,0.93,361.000000,,2013-08-25 17:03:00,
2013-08-25 12:11:00,81.0,73.0,-100.00,ESE,115,6.0,11.0,76,0.00,,,0.93,361.000000,,2013-08-25 17:11:00,
2013-08-25 12:22:00,81.0,73.0,-100.00,ESE,115,6.0,11.0,76,0.00,,,0.93,361.000000,,2013-08-25 17:22:00,
2013-08-25 12:53:00,83.0,73.0,-100.00,East,90,4.0,11.0,72,0.00,,,0.91,451.000000,,2013-08-25 17:53:00,
2013-08-25 13:02:00,83.0,73.0,-100.00,East,90,4.0,11.0,72,0.00,,,0.91,451.000000,,2013-08-25 18:02:00,
2013-08-25 13:12:00,83.0,73.0,-100.00,East,90,4.0,11.0,72,0.00,,,0.91,451.000000,,2013-08-25 18:12:00,
2013-08-25 13:22:00,83.0,73.0,-100.00,East,90,4.0,11.0,72,0.00,,,0.91,451.000000,,2013-08-25 18:22:00,
2013-08-25 13:52:00,84.0,73.0,-100.00,NE,54,6.0,12.0,69,0.00,,,-99.99,574.000000,,2013-08-25 18:52:00,
2013-08-25 14:02:00,84.0,73.0,-100.00,NE,54,6.0,12.0,69,0.00,,,-99.99,574.000000,,2013-08-25 19:02:00,
2013-08-25 14:11:00,84.0,73.0,-100.00,NE,54,6.0,12.0,69,0.00,,,-99.99,574.000000,,2013-08-25 19:11:00,
2013-08-25 14:22:00,84.0,73.0,-100.00,NE,54,6.0,12.0,69,0.00,,,-99.99,574.000000,,2013-08-25 19:22:00,
2013-08-25 14:53:00,85.0,72.0,-100.00,ENE,61,5.0,12.0,66,0.00,,,0.19,657.000000,,2013-08-25 19:53:00,
2013-08-25 15:03:00,85.0,72.0,-100.00,ENE,61,5.0,12.0,66,0.00,,,0.19,657.000000,,2013-08-25 20:03:00,
2013-08-25 15:12:00,85.0,72.0,-100.00,ENE,61,5.0,12.0,66,0.00,,,0.19,657.000000,,2013-08-25 20:12:00,
2013-08-25 15:23:00,85.0,72.0,-100.00,ENE,61,5.0,12.0,66,0.00,,,0.19,657.000000,,2013-08-25 20:23:00,
2013-08-25 15:53:00,85.0,70.0,-100.00,East,91,5.0,13.0,62,0.00,,,0.19,728.000000,,2013-08-25 20:53:00,
2013-08-25 16:02:00,85.0,70.0,-100.00,East,91,5.0,13.0,62,0.00,,,0.19,728.000000,,2013-08-25 21:02:00,
2013-08-25 16:12:00,85.0,70.0,-100.00,East,91,5.0,13.0,62,0.00,,,0.19,728.000000,,2013-08-25 21:12:00,
2013-08-25 16:22:00,85.0,70.0,-100.00,East,91,5.0,13.0,62,0.00,,,0.19,728.000000,,2013-08-25 21:22:00,
2013-08-25 16:55:00,80.0,75.0,-100.00,ESE,117,3.0,14.0,84,0.14,,,0.33,256.000000,,2013-08-25 21:55:00,
2013-08-25 17:03:00,80.0,75.0,-100.00,ESE,117,3.0,14.0,84,0.14,,,0.33,256.000000,,2013-08-25 22:03:00,
2013-08-25 17:14:00,80.0,75.0,-100.00,ESE,117,3.0,14.0,84,0.14,,,0.33,256.000000,,2013-08-25 22:14:00,
2013-08-25 17:24:00,80.0,75.0,-100.00,ESE,117,3.0,14.0,84,0.14,,,0.33,256.000000,,2013-08-25 22:24:00,
2013-08-25 17:53:00,79.0,70.0,-100.00,NE,49,3.0,15.0,73,0.01,,,0.34,265.000000,,2013-08-25 22:53:00,
2013-08-25 18:03:00,79.0,70.0,-100.00,NE,49,3.0,15.0,73,0.01,,,0.34,265.000000,,2013-08-25 23:03:00,
2013-08-25 18:12:00,79.0,70.0,-100.00,NE,49,3.0,15.0,73,0.01,,,0.34,265.000000,,2013-08-25 23:12:00,
2013-08-25 18:23:00,79.0,70.0,-100.00,NE,49,3.0,15.0,73,0.01,,,0.34,265.000000,,2013-08-25 23:23:00,
2013-08-25 18:53:00,79.0,73.0,-100.00,SE,133,6.0,13.0,81,0.00,,,0.34,109.000000,,2013-08-25 23:53:00,
2013-08-25 19:02:00,79.0,73.0,-100.00,SE,133,6.0,13.0,81,0.00,,,0.34,109.000000,,2013-08-26 00:02:00,
2013-08-25 19:11:00,79.0,73.0,-100.00,SE,133,6.0,13.0,81,0.00,,,0.34,109.000000,,2013-08-26 00:11:00,
2013-08-25 19:22:00,79.0,73.0,-100.00,SE,133,6.0,13.0,81,0.00,,,0.34,109.000000,,2013-08-26 00:22:00,
2013-08-25 19:52:00,78.0,72.0,-100.00,SE,137,3.0,9.0,83,0.00,,,0.34,38.000000,,2013-08-26 00:52:00,
2013-08-25 20:01:00,78.0,72.0,-100.00,SE,137,3.0,9.0,83,0.00,,,0.34,38.000000,,2013-08-26 01:01:00,
2013-08-25 20:11:00,78.0,72.0,-100.00,SE,137,3.0,9.0,83,0.00,,,0.34,38.000000,,2013-08-26 01:11:00,
2013-08-25 20:22:00,78.0,72.0,-100.00,SE,137,3.0,9.0,83,0.00,,,0.34,38.000000,,2013-08-26 01:22:00,
2013-08-25 20:52:00,77.0,71.0,-100.00,East,84,2.0,7.0,83,0.00,,,0.34,11.000000,,2013-08-26 01:52:00,
2013-08-25 21:02:00,77.0,71.0,-100.00,East,84,2.0,7.0,83,0.00,,,0.34,11.000000,,2013-08-26 02:02:00,
2013-08-25 21:11:00,77.0,71.0,-100.00,East,84,2.0,7.0,83,0.00,,,0.34,11.000000,,2013-08-26 02:11:00,
2013-08-25 21:22:00,77.0,71.0,-100.00,East,84,2.0,7.0,83,0.00,,,0.34,11.000000,,2013-08-26 02:22:00,
2013-08-25 21:52:00,76.0,73.0,-100.00,NE,36,0.0,2.0,90,0.00,,,0.34,11.000000,,2013-08-26 02:52:00,
2013-08-25 22:02:00,76.0,73.0,-100.00,NE,36,0.0,2.0,90,0.00,,,0.34,11.000000,,2013-08-26 03:02:00,
2013-08-25 22:11:00,76.0,73.0,-100.00,NE,36,0.0,2.0,90,0.00,,,0.34,11.000000,,2013-08-26 03:11:00,
2013-08-25 22:22:00,76.0,73.0,-100.00,NE,36,0.0,2.0,90,0.00,,,0.34,11.000000,,2013-08-26 03:22:00,
2013-08-25 22:56:00,75.0,72.0,-100.00,East,87,1.0,3.0,91,0.00,,,0.34,12.000000,,2013-08-26 03:56:00,
2013-08-25 23:05:00,75.0,72.0,-100.00,East,87,1.0,3.0,91,0.00,,,0.34,12.000000,,2013-08-26 04:05:00,
2013-08-25 23:14:00,75.0,72.0,-100.00,East,87,1.0,3.0,91,0.00,,,0.34,12.000000,,2013-08-26 04:14:00,
2013-08-25 23:24:00,75.0,72.0,-100.00,East,87,1.0,3.0,91,0.00,,,0.34,12.000000,,2013-08-26 04:24:00,
2013-08-25 23:53:00,74.0,71.0,-100.00,NNE,29,0.0,2.0,91,0.00,,,0.34,13.000000,,2013-08-26 04:53:00,